Location: ?????
(55.8833°N, 37.6500°E)
Time: 00:27:24
(UTC+00:00)

Cosmos 1515 - Pass Details

Date: 27 February 2020
Orbit: 507 x 516 km, 82.5° (Epoch: 09 April)

Event Time Altitude Azimuth Distance (km) Brightness Sun altitude
Rises 16:32:13 0° 349° (N) 2,630 7.5 -13.9°
Reaches altitude 10° 16:34:22 10° 352° (N) 1,739 6.5 -14.2°
Maximum altitude 16:38:10 66° 76° (ENE) 561 3.6 -14.8°
Drops below altitude 10° 16:41:56 10° 159° (SSE) 1,725 6.1 -15.3°
Enters shadow 16:42:14 - 160° (SSE) 1,852 6.2 -15.3°
